Terminal Aerodrome Forecast
Issued by NWS

Current Version | Previous Version | Graphics & Text | Print | Product List | Glossary On
Versions: 1 2 3 4 5 6 7 8 9 10 11 12 13 14 15 16 17
000
FTUS41 KPBZ 231720
TAFHLG
TAF
KHLG 231720Z 2318/2418 27011G26KT P6SM BKN060 OVC070
     FM240100 30008KT P6SM BKN040
     FM241400 30011G20KT P6SM FEW050=

USA.gov is the U.S. government's official web portal to all federal, state and local government web resources and services.